K4AVM-13 Weather Reports


Display with metric or nautical units.
time (UTC)temp
F
wind
direction
speed
MPH
gust
MPH
rain 1hr
in
rain 24hr
in
rain mn
in
humidity
%
barometer
mb
20260504014408 47 149 0.0 0.0 0.00 0.00 0.00 65 1017.6
20260504013904 47 152 0.0 0.0 0.00 0.00 0.00 66 1017.7
20260504013403 47 152 0.0 0.0 0.00 0.00 0.00 66 1017.6
20260504012859 47 152 0.0 0.0 0.00 0.00 0.00 64 1017.5
20260504012356 48 150 0.0 0.0 0.00 0.00 0.00 63 1017.7
20260504011849 48 150 0.0 0.0 0.00 0.00 0.00 61 1017.7
20260504011345 48 151 0.0 0.0 0.00 0.00 0.00 62 1017.5
20260504010841 49 152 0.0 0.0 0.00 0.00 0.00 60 1017.5
20260504010337 49 152 0.0 0.0 0.00 0.00 0.00 60 1017.6
20260504005834 50 153 0.0 0.0 0.00 0.00 0.00 57 1017.6
20260504005330 50 153 0.0 0.0 0.00 0.00 0.00 58 1017.5
20260504004828 50 152 0.0 0.0 0.00 0.00 0.00 56 1017.6
20260504004326 51 152 0.0 0.0 0.00 0.00 0.00 54 1017.4
20260504003822 51 154 0.0 0.0 0.00 0.00 0.00 52 1017.2
20260504003319 52 154 0.0 0.0 0.00 0.00 0.00 51 1017.2
20260504002816 52 154 0.0 0.0 0.00 0.00 0.00 49 1017.3
20260504002312 53 156 0.0 0.0 0.00 0.00 0.00 48 1017.2
20260504001810 53 156 0.0 0.0 0.00 0.00 0.00 47 1017.1
20260504001307 54 154 0.0 0.0 0.00 0.00 0.00 46 1017.3
20260504000804 54 153 0.0 0.0 0.00 0.00 0.00 45 1017.1
20260504000301 55 155 0.0 0.0 0.00 0.00 0.00 44 1016.9
20260503235759 56 157 0.0 0.0 0.00 0.00 0.00 42 1016.9
20260503235256 57 161 0.0 0.0 0.00 0.00 0.00 41 1016.9
20260503234754 57 162 0.0 0.0 0.00 0.00 0.00 39 1016.8
20260503234251 58 172 0.0 0.0 0.00 0.00 0.00 41 1016.9
20260503233748 58 162 0.0 0.0 0.00 0.00 0.00 39 1016.6
20260503233244 59 158 0.0 0.0 0.00 0.00 0.00 38 1016.8
20260503232741 59 160 0.0 0.0 0.00 0.00 0.00 37 1016.6
20260503232238 59 146 0.0 0.0 0.00 0.00 0.00 36 1016.8
20260503231736 60 177 0.0 0.0 0.00 0.00 0.00 36 1016.7
20260503231233 60 159 0.0 1.0 0.00 0.00 0.00 34 1016.7
20260503230729 61 160 0.0 0.0 0.00 0.00 0.00 34 1016.8
20260503230227 61 167 0.0 0.0 0.00 0.00 0.00 34 1016.7
20260503225724 61 130 0.0 0.0 0.00 0.00 0.00 35 1016.6
20260503225224 61 176 0.0 1.0 0.00 0.00 0.00 35 1016.8
20260503224721 61 161 0.0 0.0 0.00 0.00 0.00 33 1016.7
20260503224219 61 124 0.0 0.0 0.00 0.00 0.00 32 1016.7
20260503223716 61 159 0.0 0.0 0.00 0.00 0.00 32 1016.9
20260503223214 62 154 0.0 0.0 0.00 0.00 0.00 33 1016.7
20260503222710 62 177 0.0 0.0 0.00 0.00 0.00 33 1016.7
20260503222208 62 178 0.0 0.0 0.00 0.00 0.00 33 1016.8
20260503221706 63 174 2.0 3.0 0.00 0.00 0.00 32 1016.9
20260503221203 63 174 2.0 3.0 0.00 0.00 0.00 32 1016.7
20260503220700 62 166 1.0 1.0 0.00 0.00 0.00 32 1017.0
20260503220156 62 76 0.0 3.0 0.00 0.00 0.00 32 1017.0
20260503215653 62 168 0.0 2.0 0.00 0.00 0.00 33 1017.0
20260503215150 63 238 1.0 2.0 0.00 0.00 0.00 30 1017.0
20260503214648 63 178 1.0 3.0 0.00 0.00 0.00 31 1016.9
20260503214144 65 179 0.0 8.0 0.00 0.00 0.00 31 1017.0
20260503213638 66 204 1.0 2.0 0.00 0.00 0.00 30 1016.9
20260503213134 65 340 2.0 6.0 0.00 0.00 0.00 28 1016.8
20260503212632 67 196 1.0 3.0 0.00 0.00 0.00 30 1017.0
20260503212129 66 173 0.0 1.0 0.00 0.00 0.00 27 1016.9
20260503211627 66 112 1.0 2.0 0.00 0.00 0.00 28 1016.8
20260503211122 66 206 0.0 2.0 0.00 0.00 0.00 30 1016.9
20260503210618 65 190 1.0 2.0 0.00 0.00 0.00 29 1017.1
20260503210115 66 141 1.0 6.0 0.00 0.00 0.00 29 1017.2
20260503205611 66 200 1.0 4.0 0.00 0.00 0.00 30 1017.1
20260503205107 66 189 1.0 3.0 0.00 0.00 0.00 31 1017.0
20260503204604 67 196 2.0 2.0 0.00 0.00 0.00 28 1016.9
20260503204101 65 192 1.0 3.0 0.00 0.00 0.00 30 1016.7
20260503203558 66 182 2.0 3.0 0.00 0.00 0.00 29 1016.9
20260503203055 65 191 0.0 1.0 0.00 0.00 0.00 32 1017.0
20260503202553 66 309 2.0 4.0 0.00 0.00 0.00 29 1017.0
20260503202051 66 309 2.0 4.0 0.00 0.00 0.00 29 1017.0
20260503201549 66 2 3.0 3.0 0.00 0.00 0.00 28 1016.9
20260503201046 65 204 1.0 2.0 0.00 0.00 0.00 28 1017.0
20260503200542 65 180 1.0 2.0 0.00 0.00 0.00 29 1017.2
20260503200039 65 185 2.0 2.0 0.00 0.00 0.00 32 1017.3
20260503195536 64 177 1.0 2.0 0.00 0.00 0.00 30 1017.5
20260503195033 64 39 1.0 3.0 0.00 0.00 0.00 32 1017.4
20260503194530 64 216 3.0 6.0 0.00 0.00 0.00 30 1017.7
20260503194030 65 62 2.0 3.0 0.00 0.00 0.00 29 1017.3
20260503193527 65 185 1.0 2.0 0.00 0.00 0.00 31 1017.6
20260503193022 64 179 2.0 2.0 0.00 0.00 0.00 33 1017.7
20260503192518 62 193 0.0 0.0 0.00 0.00 0.00 32 1017.7
20260503192014 63 232 2.0 3.0 0.00 0.00 0.00 32 1017.9
20260503191511 64 218 2.0 4.0 0.00 0.00 0.00 32 1018.0
20260503191008 63 182 1.0 3.0 0.00 0.00 0.00 30 1018.0
20260503190505 63 183 1.0 1.0 0.00 0.00 0.00 31 1017.9
20260503190002 63 128 0.0 6.0 0.00 0.00 0.00 33 1018.1
20260503185458 62 249 2.0 14.0 0.00 0.00 0.00 31 1018.4
20260503184958 64 229 2.0 3.0 0.00 0.00 0.00 30 1017.9
20260503184454 63 20 0.0 2.0 0.00 0.00 0.00 31 1018.4
20260503183951 63 201 2.0 6.0 0.00 0.00 0.00 36 1018.4
20260503183448 63 355 2.0 7.0 0.00 0.00 0.00 33 1018.5
20260503182944 62 108 1.0 7.0 0.00 0.00 0.00 31 1018.6
20260503182444 61 335 0.0 7.0 0.00 0.00 0.00 30 1018.5
20260503181941 61 176 1.0 4.0 0.00 0.00 0.00 32 1018.8
20260503181438 62 184 1.0 3.0 0.00 0.00 0.00 36 1018.6
20260503180933 61 173 1.0 2.0 0.00 0.00 0.00 33 1018.4
20260503180432 60 211 3.0 3.0 0.00 0.00 0.00 33 1018.6
20260503175929 63 38 2.0 6.0 0.00 0.00 0.00 33 1018.6
20260503175427 61 195 1.0 2.0 0.00 0.00 0.00 35 1018.7
20260503174922 62 325 5.0 8.0 0.00 0.00 0.00 32 1018.3
20260503174420 62 161 1.0 3.0 0.00 0.00 0.00 33 1018.6
20260503173914 61 306 2.0 6.0 0.00 0.00 0.00 32 1018.8
20260503173411 60 171 0.0 2.0 0.00 0.00 0.00 39 1018.9
20260503172908 59 176 2.0 3.0 0.00 0.00 0.00 36 1018.9
20260503172406 60 184 2.0 3.0 0.00 0.00 0.00 33 1018.8
20260503171901 61 2 3.0 6.0 0.00 0.00 0.00 34 1018.9
20260503171358 60 193 2.0 3.0 0.00 0.00 0.00 33 1019.0
20260503170856 60 60 3.0 4.0 0.00 0.00 0.00 33 1019.2
20260503170352 59 187 1.0 4.0 0.00 0.00 0.00 35 1019.3
20260503150744 55 8 1.0 8.0 0.00 0.00 0.00 36 1019.8
20260503150240 56 188 2.0 8.0 0.00 0.00 0.00 38 1020.0
20260503140205 53 209 2.0 3.0 0.00 0.00 0.00 35 1019.8
20260503131134 51 313 7.0 11.0 0.00 0.00 0.00 50 1019.8
20260503130632 51 143 2.0 14.0 0.00 0.00 0.00 52 1020.0
20260503130129 51 344 3.0 7.0 0.00 0.00 0.00 53 1019.7
20260503110517 43 160 0.0 1.0 0.00 0.00 0.00 69 1018.8
20260503090403 47 124 1.0 2.0 0.00 0.00 0.00 60 1016.8
20260503081330 48 22 3.0 3.0 0.00 0.00 0.00 58 1016.3
20260503080826 48 94 0.0 1.0 0.00 0.00 0.00 59 1016.3
20260503080323 48 251 2.0 4.0 0.00 0.00 0.00 58 1016.4
20260503072759 49 121 1.0 3.0 0.00 0.00 0.00 56 1016.0
20260503072257 50 37 4.0 8.0 0.00 0.00 0.00 56 1015.8
20260503071752 50 17 3.0 4.0 0.00 0.00 0.00 56 1015.7
20260503071250 50 165 1.0 3.0 0.00 0.00 0.00 56 1015.7
20260503070746 50 322 2.0 6.0 0.00 0.00 0.00 57 1015.7
20260503070244 50 126 0.0 4.0 0.00 0.00 0.00 57 1015.6
20260503060209 51 41 4.0 4.0 0.00 0.00 0.00 58 1015.1
20260503054656 51 240 2.0 9.0 0.00 0.00 0.00 57 1015.0
20260503054153 52 93 0.0 3.0 0.00 0.00 0.00 57 1014.9
20260503053651 52 359 4.0 7.0 0.00 0.00 0.00 57 1015.2
20260503053150 52 136 0.0 3.0 0.00 0.00 0.00 57 1015.1
20260503052645 52 271 2.0 2.0 0.00 0.00 0.00 57 1015.3
20260503052142 52 113 0.0 2.0 0.00 0.00 0.00 57 1015.0
20260503051637 52 251 2.0 4.0 0.00 0.00 0.00 57 1015.2
20260503051135 52 358 2.0 7.0 0.00 0.00 0.00 58 1015.1
20260503050632 52 168 1.0 2.0 0.00 0.00 0.00 59 1015.0
20260503050128 52 21 1.0 3.0 0.00 0.00 0.00 59 1015.0
20260503045626 52 154 0.0 1.0 0.00 0.00 0.00 60 1014.9
20260503045123 52 158 0.0 0.0 0.00 0.00 0.00 59 1014.9
20260503044619 52 152 0.0 2.0 0.00 0.00 0.00 58 1014.9
20260503044117 52 268 2.0 2.0 0.00 0.00 0.00 59 1014.8
20260503043613 52 132 0.0 3.0 0.00 0.00 0.00 59 1014.8
20260503043110 52 36 1.0 2.0 0.00 0.00 0.00 59 1014.7
20260503042607 52 144 0.0 1.0 0.00 0.00 0.00 60 1015.0
20260503042103 52 149 0.0 0.0 0.00 0.00 0.00 60 1014.9
20260503041600 52 114 0.0 0.0 0.00 0.00 0.00 60 1014.9
20260503041058 52 126 0.0 0.0 0.00 0.00 0.00 60 1014.9
20260503040554 52 149 0.0 0.0 0.00 0.00 0.00 60 1014.8
20260503040052 52 151 0.0 1.0 0.00 0.00 0.00 60 1015.0
20260503035548 52 152 0.0 1.0 0.00 0.00 0.00 60 1014.8
20260503035046 52 152 0.0 1.0 0.00 0.00 0.00 62 1014.9
20260503034543 52 131 0.0 0.0 0.00 0.00 0.00 62 1014.8
20260503034040 52 145 0.0 0.0 0.00 0.00 0.00 62 1014.8
20260503033537 52 155 0.0 0.0 0.00 0.00 0.00 63 1014.9
20260503033035 52 154 0.0 0.0 0.00 0.00 0.00 63 1014.8
20260503032533 52 150 0.0 0.0 0.00 0.00 0.00 63 1014.8
20260503032031 52 152 0.0 0.0 0.00 0.00 0.00 63 1014.8
20260503031529 52 152 0.0 0.0 0.00 0.00 0.00 63 1014.9
20260503031026 52 141 0.0 0.0 0.00 0.00 0.00 63 1014.7
20260503030522 52 151 0.0 0.0 0.00 0.00 0.00 63 1014.8
20260503030019 52 149 0.0 0.0 0.00 0.00 0.00 64 1014.7
20260503025515 52 155 0.0 0.0 0.00 0.00 0.00 65 1014.8
20260503025014 52 157 0.0 0.0 0.00 0.00 0.00 64 1015.0
20260503024509 51 153 0.0 0.0 0.00 0.00 0.00 66 1014.8
20260503024007 51 149 0.0 0.0 0.00 0.00 0.00 69 1014.8
20260503023503 51 149 0.0 0.0 0.00 0.00 0.00 69 1014.8
20260503023000 51 146 0.0 0.0 0.00 0.00 0.00 70 1014.8
20260503022456 51 152 0.0 0.0 0.00 0.00 0.00 71 1014.6
20260503021951 51 152 0.0 0.0 0.00 0.00 0.00 73 1014.7
20260503021448 51 152 0.0 0.0 0.00 0.00 0.00 72 1014.6
20260503020946 51 152 0.0 0.0 0.00 0.00 0.00 72 1014.6
20260503020443 51 152 0.0 0.0 0.00 0.00 0.00 72 1014.5
20260503015939 51 153 0.0 0.0 0.00 0.00 0.00 74 1014.6
20260503015436 51 152 0.0 0.0 0.00 0.00 0.00 73 1014.7
20260503014932 51 152 0.0 0.0 0.00 0.00 0.00 73 1014.6